Tracking 18984 objects as of 24-Feb-2018
HD Live streaming from Space Station
objects crossing your sky now

MUNIN

Track MUNIN now!
10-day predictions
MUNIN is classified as:


NORAD ID: 26621
Int'l Code: 2000-075C
Perigee: 709.1 km
Apogee: 1,797.1 km
Inclination: 95.4 °
Period: 110.4 minutes
Semi major axis: 7624 km
RCS: 0.165 m2 (medium)
Launch date: November 21, 2000
Source: Sweden (SWED)
Launch site: AIR FORCE WESTERN TEST RANGE (AFWTR)
aabbcc
Your satellite tracking list
Your tracking list is empty




NASA's NSSDC Master Catalog

Two Line Element Set (TLE):
1 26621U 00075C   18055.06793661 -.00000027 +00000-0 -17211-4 0  9993
2 26621 095.4095 353.1900 0713519 148.4813 216.1179 13.04131978821226
Source of the keplerian elements: AFSPC